カタログに戻る

BREEZE-M DEB

TANK

運用中HEO
NORAD 39524·DEBRIS·🇷🇺 Russia

打ち上げ Feb 14, 2014 から Baikonur Cosmodrome

Loading…

次のパス (今後24時間)

TLE

最新Source: Space-Track

元期: Sep 14, 2026, 04:52 UTC

1 39524U 14007C   26257.20311219  .00011279  00000-0  67303-3 0  9998
2 39524  49.2826 254.4851 5913434 241.3866  47.5590  4.22627029176383

AllMySatでBREEZE-M DEBをリアルタイム追跡

Download on the App Store